Regional Weather Roundup
Issued by NWS

Home | Current Version | Previous Version | Text Only | Print | Product List | Glossary Off
Versions: 1 2 3 4 5 6 7 8 9 10 11 12 13 14 15 16 17 18 19 20 21 22 23 24 25 26 27 28 29 30 31 32 33 34 35 36 37 38 39 40 41 42 43 44 45 46 47 48 49 50

000
ASUS43 KOAX 201910
RWRNE

WEATHER ROUNDUP FOR NEBRASKA
NATIONAL WEATHER SERVICE OMAHA NE
200 PM CDT WED SEP 20 2017

NOTES: SATELLITE DATA IS BEING USED TO AUGMENT CLOUD COVER ABOVE
       12000 FEET.
       "FAIR" INDICATES FEW OR NO CLOUDS BELOW 12,000 FEET WITH NO
       SIGNIFICANT WEATHER AND/OR OBSTRUCTIONS TO VISIBILITY.


NEZ001>004-019>022-054>056-202000-
NEBRASKA PANHANDLE

CITY           SKY/WX    TMP DP  RH WIND       PRES   REMARKS
SCOTTSBLUFF    SUNNY     70  28  21 VRB6      29.89F
ALLIANCE       SUNNY     69  28  21 W9        29.90F
CHADRON        SUNNY     72  20  14 SW21G30   29.84F
GORDON         FAIR      69  21  16 W16G26    29.86F
KIMBALL        SUNNY     68  36  30 S18G25    29.95F
SIDNEY         SUNNY     70  34  26 S14G21    29.95F
$$

NEZ057>060-069>072-079>082-202000-
SOUTHWEST NEBRASKA

CITY           SKY/WX    TMP DP  RH WIND       PRES   REMARKS
NORTH PLATTE   SUNNY     73  33  23 MISG      29.92F
IMPERIAL       SUNNY     74  22  14 N9        29.94F
LEXINGTON      SUNNY     75  35  23 CALM      29.91F
MCCOOK         SUNNY     77  31  18 CALM      29.92F
OGALLALA       SUNNY     73  24  16 SW6       29.93F
$$

NEZ005>010-023>029-035>040-094-202000-
NORTH CENTRAL NEBRASKA

CITY           SKY/WX    TMP DP  RH WIND       PRES   REMARKS
VALENTINE      SUNNY     73  26  17 SW16G25   29.87F
AINSWORTH      SUNNY     71  35  27 SW12      29.88F
BROKEN BOW     SUNNY     75  34  22 NW10      29.90F
O`NEILL        SUNNY     72  43  35 SW8       29.89F
ORD            SUNNY     73  40  30 N5        29.89F
THEDFORD       SUNNY     73  30  20 W10G16    29.91S
$$

NEZ041-046>049-061>064-073>077-083>087-202000-
SOUTH CENTRAL NEBRASKA

CITY           SKY/WX    TMP DP  RH WIND       PRES   REMARKS
GRAND ISLAND   SUNNY     75  42  30 N12       29.89F
AURORA         SUNNY     75  43  31 N8        29.88F
HASTINGS       SUNNY     76  40  27 N7        29.90F
HEBRON         SUNNY     81  48  31 N9        29.85F
HOLDREGE       SUNNY     73  36  25 CALM      29.91S
KEARNEY        SUNNY     75  41  29 N7        29.90F
YORK           SUNNY     75  48  38 N7        29.88S
$$

NEZ011>018-030>034-042>045-202000-
NORTHEAST NEBRASKA

CITY           SKY/WX    TMP DP  RH WIND       PRES   REMARKS
NORFOLK        SUNNY     74  42  31 NW9       29.87S
ALBION         SUNNY     73  46  36 NW8       29.89F
BLAIR          SUNNY     76  54  47 N13       29.85S
COLUMBUS       SUNNY     76  43  30 N9        29.88S
FREMONT        SUNNY     75  50  41 NW10      29.87R
TEKAMAH        SUNNY     77  51  40 N10       29.85S
WAYNE          SUNNY     72  44  37 N8        29.88S
$$

NEZ050>053-065>068-078-088>093-202000-
SOUTHEAST NEBRASKA

CITY           SKY/WX    TMP DP  RH WIND       PRES   REMARKS
LINCOLN        SUNNY     80  52  37 N8        29.85S
OMAHA EPPLEY   SUNNY     79  55  43 NW17      29.83S
BEATRICE       SUNNY     81  55  41 N8        29.83F
FALLS CITY     PTSUNNY   84  65  52 NW8       29.78S
NEBRASKA CITY  CLOUDY    79  61  54 N9        29.82S
PLATTSMOUTH    SUNNY     78  56  46 NW9       29.83S
$$

NEZ044-045-051>053-067-202000-
OMAHA AREA

CITY           SKY/WX    TMP DP  RH WIND       PRES   REMARKS
OMAHA EPPLEY   SUNNY     79  55  43 NW17      29.83S
BLAIR          SUNNY     76  54  47 N13       29.85S
FREMONT        SUNNY     75  50  41 NW10      29.87R
MILLARD        SUNNY     79  56  45 NW9       29.84R
OFFUTT AFB     SUNNY     79  56  44 N9        29.82S
PLATTSMOUTH    SUNNY     78  56  46 NW9       29.83S
WAHOO          FAIR      77  51  39 N8        29.85S
$$



USA.gov is the U.S. government's official web portal to all federal, state and local government web resources and services.